Time,TemperatureF,DewpointF,PressureIn,WindDirection,WindDirectionDegrees,WindSpeedMPH,WindSpeedGustMPH,Humidity,HourlyPrecipIn,Conditions,Clouds,dailyrainin,SoftwareType,DateUTC
2013-04-10 00:00:00,42.9,37.8,29.75,WNW,290,14.0,16.0,82,0.00,,---,0.00,VWS V14.00,2013-04-10 05:00:00,
2013-04-10 00:05:00,42.4,37.3,29.75,NW,313,12.0,17.0,82,0.00,,---,0.00,VWS V14.00,2013-04-10 05:05:00,
2013-04-10 00:10:00,42.3,37.5,29.74,NW,320,9.0,16.0,83,0.00,,---,0.00,VWS V14.00,2013-04-10 05:10:00,
2013-04-10 00:15:00,42.3,37.5,29.74,NW,325,9.0,17.0,83,0.00,,---,0.00,VWS V14.00,2013-04-10 05:15:00,
2013-04-10 00:20:00,42.2,37.4,29.73,NNW,334,17.0,19.0,83,0.00,,---,0.00,VWS V14.00,2013-04-10 05:20:00,
2013-04-10 00:25:00,42.1,37.3,29.73,NW,325,17.0,17.0,83,0.00,,---,0.00,VWS V14.00,2013-04-10 05:25:00,
2013-04-10 00:30:00,41.9,37.1,29.71,NNW,327,12.0,16.0,83,0.00,,---,0.00,VWS V14.00,2013-04-10 05:30:00,
2013-04-10 00:35:00,41.9,37.1,29.74,NNW,329,11.0,16.0,83,0.00,,---,0.00,VWS V14.00,2013-04-10 05:35:00,
2013-04-10 00:40:00,41.9,37.4,29.75,NW,318,14.0,15.0,84,0.00,,---,0.00,VWS V14.00,2013-04-10 05:40:00,
2013-04-10 00:45:00,42.0,37.5,29.75,NW,315,13.0,17.0,84,0.00,,---,0.00,VWS V14.00,2013-04-10 05:45:00,
2013-04-10 00:50:00,42.1,37.6,29.76,WNW,296,14.0,16.0,84,0.00,,---,0.00,VWS V14.00,2013-04-10 05:50:00,
2013-04-10 00:55:00,42.2,37.7,29.75,NNW,336,10.0,15.0,84,0.00,,---,0.00,VWS V14.00,2013-04-10 05:55:00,
2013-04-10 01:00:00,42.4,37.9,29.76,NNW,338,13.0,15.0,84,0.00,,---,0.00,VWS V14.00,2013-04-10 06:00:00,
2013-04-10 01:05:00,42.6,38.1,29.77,NW,322,12.0,12.0,84,0.00,,---,0.00,VWS V14.00,2013-04-10 06:05:00,
2013-04-10 01:10:00,42.6,38.1,29.79,NW,305,8.0,11.0,84,0.00,,---,0.00,VWS V14.00,2013-04-10 06:10:00,
2013-04-10 01:15:00,42.7,38.2,29.79,WNW,297,12.0,17.0,84,0.00,,---,0.00,VWS V14.00,2013-04-10 06:15:00,
2013-04-10 01:20:00,42.6,37.8,29.79,NW,325,11.0,11.0,83,0.00,,---,0.00,VWS V14.00,2013-04-10 06:20:00,
2013-04-10 01:25:00,42.5,37.7,29.78,NW,325,9.0,13.0,83,0.00,,---,0.00,VWS V14.00,2013-04-10 06:25:00,
2013-04-10 01:30:00,42.5,37.7,29.77,NNW,331,10.0,10.0,83,0.00,,---,0.00,VWS V14.00,2013-04-10 06:30:00,
2013-04-10 01:35:00,42.4,37.6,29.77,NNW,342,9.0,10.0,83,0.00,,---,0.00,VWS V14.00,2013-04-10 06:35:00,
2013-04-10 01:40:00,42.2,37.7,29.76,North,355,5.0,6.0,84,0.00,,---,0.00,VWS V14.00,2013-04-10 06:40:00,
2013-04-10 01:45:00,42.1,37.6,29.76,North,355,5.0,10.0,84,0.00,,---,0.00,VWS V14.00,2013-04-10 06:45:00,
2013-04-10 01:50:00,42.0,37.5,29.77,North,355,7.0,9.0,84,0.00,,---,0.00,VWS V14.00,2013-04-10 06:50:00,
2013-04-10 01:55:00,42.1,37.9,29.82,West,273,15.0,19.0,85,0.00,,---,0.01,VWS V14.00,2013-04-10 06:55:00,
2013-04-10 02:00:00,42.2,38.3,29.81,WNW,287,14.0,18.0,86,0.00,,---,0.01,VWS V14.00,2013-04-10 07:00:00,
2013-04-10 02:05:00,42.3,38.4,29.82,WNW,290,10.0,14.0,86,0.00,,---,0.01,VWS V14.00,2013-04-10 07:05:00,
2013-04-10 02:10:00,42.2,38.3,29.81,WNW,287,18.0,18.0,86,0.00,,---,0.01,VWS V14.00,2013-04-10 07:10:00,
2013-04-10 02:15:00,42.0,38.1,29.81,WNW,294,13.0,19.0,86,0.00,,---,0.01,VWS V14.00,2013-04-10 07:15:00,
2013-04-10 02:20:00,41.9,38.0,29.83,WNW,284,10.0,17.0,86,0.00,,---,0.01,VWS V14.00,2013-04-10 07:20:00,
2013-04-10 02:25:00,41.6,37.7,29.81,NW,312,9.0,16.0,86,0.00,,---,0.01,VWS V14.00,2013-04-10 07:25:00,
2013-04-10 02:30:00,41.3,37.4,29.81,NW,304,9.0,12.0,86,0.19,,---,0.03,VWS V14.00,2013-04-10 07:30:00,
2013-04-10 02:35:00,41.1,37.2,29.81,NW,315,8.0,11.0,86,0.12,,---,0.03,VWS V14.00,2013-04-10 07:35:00,
2013-04-10 02:40:00,41.0,37.1,29.82,NW,317,11.0,13.0,86,0.06,,---,0.03,VWS V14.00,2013-04-10 07:40:00,
2013-04-10 02:45:00,40.9,37.3,29.81,NW,310,9.0,12.0,87,0.04,,---,0.03,VWS V14.00,2013-04-10 07:45:00,
2013-04-10 02:50:00,41.0,38.9,29.82,NW,306,11.0,12.0,92,0.00,,---,0.03,VWS V14.00,2013-04-10 07:50:00,
2013-04-10 02:55:00,41.0,37.4,29.82,NW,321,10.0,13.0,87,0.00,,---,0.03,VWS V14.00,2013-04-10 07:55:00,
2013-04-10 03:00:00,41.0,37.4,29.81,NW,325,9.0,9.0,87,0.00,,---,0.03,VWS V14.00,2013-04-10 08:00:00,
2013-04-10 03:05:00,41.2,37.6,29.82,NW,321,6.0,8.0,87,0.00,,---,0.03,VWS V14.00,2013-04-10 08:05:00,
2013-04-10 03:10:00,41.2,37.9,29.81,NNW,330,11.0,12.0,88,0.00,,---,0.03,VWS V14.00,2013-04-10 08:10:00,
2013-04-10 03:15:00,41.3,37.7,29.81,NNW,329,9.0,14.0,87,0.00,,---,0.03,VWS V14.00,2013-04-10 08:15:00,
2013-04-10 03:20:00,41.3,38.0,29.81,NW,325,5.0,8.0,88,0.00,,---,0.03,VWS V14.00,2013-04-10 08:20:00,
2013-04-10 03:25:00,41.4,37.8,29.82,NW,317,10.0,11.0,87,0.00,,---,0.03,VWS V14.00,2013-04-10 08:25:00,
2013-04-10 03:30:00,41.4,38.1,29.80,NW,320,11.0,11.0,88,0.00,,---,0.04,VWS V14.00,2013-04-10 08:30:00,
2013-04-10 03:35:00,41.5,38.2,29.81,NW,317,10.0,13.0,88,0.00,,---,0.04,VWS V14.00,2013-04-10 08:35:00,
2013-04-10 03:40:00,41.3,38.0,29.82,WNW,303,11.0,15.0,88,0.24,,---,0.06,VWS V14.00,2013-04-10 08:40:00,
2013-04-10 03:45:00,41.3,38.0,29.83,WNW,286,14.0,18.0,88,0.08,,---,0.06,VWS V14.00,2013-04-10 08:45:00,
2013-04-10 03:50:00,41.1,37.8,29.82,WNW,303,11.0,17.0,88,0.35,,---,0.08,VWS V14.00,2013-04-10 08:50:00,
2013-04-10 03:55:00,40.8,37.5,29.83,WNW,298,12.0,14.0,88,0.32,,---,0.12,VWS V14.00,2013-04-10 08:55:00,
2013-04-10 04:00:00,40.6,37.6,29.85,West,267,22.0,22.0,89,0.14,,---,0.13,VWS V14.00,2013-04-10 09:00:00,
2013-04-10 04:05:00,40.3,37.3,29.85,WNW,287,16.0,22.0,89,0.19,,---,0.15,VWS V14.00,2013-04-10 09:05:00,
2013-04-10 04:10:00,39.9,36.9,29.82,NW,310,13.0,15.0,89,0.18,,---,0.17,VWS V14.00,2013-04-10 09:10:00,
2013-04-10 04:15:00,39.6,36.6,29.82,NW,317,15.0,15.0,89,0.17,,---,0.18,VWS V14.00,2013-04-10 09:15:00,
2013-04-10 04:20:00,39.4,36.4,29.81,NW,309,9.0,13.0,89,0.10,,---,0.19,VWS V14.00,2013-04-10 09:20:00,
2013-04-10 04:25:00,39.2,36.2,29.82,NW,309,11.0,18.0,89,0.10,,---,0.19,VWS V14.00,2013-04-10 09:25:00,
2013-04-10 04:30:00,39.2,36.2,29.82,NW,312,16.0,20.0,89,0.05,,---,0.19,VWS V14.00,2013-04-10 09:30:00,
2013-04-10 04:35:00,38.9,35.9,29.82,NW,319,16.0,16.0,89,0.04,,---,0.19,VWS V14.00,2013-04-10 09:35:00,
2013-04-10 04:40:00,38.8,36.1,29.81,NW,317,10.0,15.0,90,0.00,,---,0.19,VWS V14.00,2013-04-10 09:40:00,
2013-04-10 04:45:00,38.8,36.1,29.81,NNW,327,11.0,13.0,90,0.00,,---,0.19,VWS V14.00,2013-04-10 09:45:00,
2013-04-10 04:50:00,38.8,36.1,29.81,NNW,340,12.0,17.0,90,0.00,,---,0.19,VWS V14.00,2013-04-10 09:50:00,
2013-04-10 04:55:00,38.7,35.7,29.79,NNW,335,19.0,21.0,89,0.00,,---,0.19,VWS V14.00,2013-04-10 09:55:00,
2013-04-10 05:00:00,38.5,35.5,29.79,North,350,9.0,13.0,89,0.00,,---,0.19,VWS V14.00,2013-04-10 10:00:00,
2013-04-10 05:05:00,38.4,35.5,29.78,North,355,12.0,12.0,89,0.00,,---,0.19,VWS V14.00,2013-04-10 10:05:00,
2013-04-10 05:10:00,38.3,35.3,29.79,NNE,17,10.0,13.0,89,0.00,,---,0.19,VWS V14.00,2013-04-10 10:10:00,
2013-04-10 05:15:00,38.4,35.5,29.79,NNW,336,12.0,12.0,89,0.00,,---,0.19,VWS V14.00,2013-04-10 10:15:00,
2013-04-10 05:20:00,38.4,35.5,29.78,North,9,7.0,13.0,89,0.00,,---,0.19,VWS V14.00,2013-04-10 10:20:00,
2013-04-10 05:25:00,38.5,35.5,29.81,NNW,338,10.0,12.0,89,0.00,,---,0.19,VWS V14.00,2013-04-10 10:25:00,
2013-04-10 05:30:00,38.6,35.9,29.80,North,355,10.0,12.0,90,0.00,,---,0.19,VWS V14.00,2013-04-10 10:30:00,
2013-04-10 05:35:00,38.7,36.0,29.80,North,5,5.0,7.0,90,0.00,,---,0.19,VWS V14.00,2013-04-10 10:35:00,
2013-04-10 05:40:00,38.8,36.1,29.80,North,350,5.0,8.0,90,0.00,,---,0.19,VWS V14.00,2013-04-10 10:40:00,
2013-04-10 05:45:00,38.9,36.2,29.83,NNW,329,7.0,9.0,90,0.00,,---,0.19,VWS V14.00,2013-04-10 10:45:00,
2013-04-10 05:50:00,39.0,36.3,29.83,NW,307,6.0,9.0,90,0.00,,---,0.20,VWS V14.00,2013-04-10 10:50:00,
2013-04-10 05:55:00,39.2,36.5,29.83,NW,306,9.0,10.0,90,0.00,,---,0.20,VWS V14.00,2013-04-10 10:55:00,
2013-04-10 06:00:00,39.2,36.5,29.83,NW,324,10.0,10.0,90,0.00,,---,0.20,VWS V14.00,2013-04-10 11:00:00,
2013-04-10 06:05:00,39.3,36.6,29.84,West,281,7.0,12.0,90,0.00,,---,0.20,VWS V14.00,2013-04-10 11:05:00,
2013-04-10 06:10:00,39.3,36.6,29.81,NNW,341,10.0,13.0,90,0.00,,---,0.20,VWS V14.00,2013-04-10 11:10:00,
2013-04-10 06:15:00,39.3,36.6,29.81,NNW,337,9.0,11.0,90,0.00,,---,0.20,VWS V14.00,2013-04-10 11:15:00,
2013-04-10 06:20:00,39.2,36.5,29.82,NNW,333,6.0,11.0,90,0.00,,---,0.20,VWS V14.00,2013-04-10 11:20:00,
2013-04-10 06:25:00,39.2,36.5,29.83,NNW,336,13.0,13.0,90,0.00,,---,0.20,VWS V14.00,2013-04-10 11:25:00,
2013-04-10 06:30:00,39.2,36.5,29.85,NNW,327,8.0,12.0,90,0.00,,---,0.20,VWS V14.00,2013-04-10 11:30:00,
2013-04-10 06:35:00,39.1,36.4,29.84,NW,318,9.0,15.0,90,0.00,,---,0.20,VWS V14.00,2013-04-10 11:35:00,
2013-04-10 06:40:00,39.2,36.5,29.82,NW,323,11.0,15.0,90,0.00,,---,0.20,VWS V14.00,2013-04-10 11:40:00,
2013-04-10 06:45:00,39.1,36.4,29.83,NW,313,16.0,16.0,90,0.00,,---,0.20,VWS V14.00,2013-04-10 11:45:00,
2013-04-10 06:50:00,39.0,36.3,29.85,West,280,13.0,14.0,90,0.00,,---,0.20,VWS V14.00,2013-04-10 11:50:00,
2013-04-10 06:55:00,39.1,36.4,29.88,WNW,291,10.0,11.0,90,0.00,,---,0.20,VWS V14.00,2013-04-10 11:55:00,
2013-04-10 07:00:00,38.9,35.9,29.86,NW,306,8.0,12.0,89,0.00,,---,0.20,VWS V14.00,2013-04-10 12:00:00,
2013-04-10 07:05:00,38.8,35.8,29.88,WNW,289,9.0,13.0,89,0.00,,---,0.20,VWS V14.00,2013-04-10 12:05:00,
2013-04-10 07:10:00,38.6,35.6,29.86,NW,311,10.0,15.0,89,0.39,,---,0.22,VWS V14.00,2013-04-10 12:10:00,
2013-04-10 07:15:00,38.4,35.5,29.87,NW,305,14.0,17.0,89,0.14,,---,0.24,VWS V14.00,2013-04-10 12:15:00,
2013-04-10 07:20:00,38.3,35.3,29.91,WNW,285,18.0,18.0,89,0.13,,---,0.24,VWS V14.00,2013-04-10 12:20:00,
2013-04-10 07:25:00,38.3,35.3,29.91,NW,308,13.0,14.0,89,0.68,,---,0.26,VWS V14.00,2013-04-10 12:25:00,
2013-04-10 07:30:00,38.1,35.2,29.89,WNW,302,14.0,15.0,89,0.20,,---,0.27,VWS V14.00,2013-04-10 12:30:00,
2013-04-10 07:35:00,37.9,35.0,29.86,NW,323,9.0,12.0,89,0.10,,---,0.27,VWS V14.00,2013-04-10 12:35:00,
2013-04-10 07:40:00,37.8,34.9,29.83,North,9,16.0,16.0,89,0.09,,---,0.27,VWS V14.00,2013-04-10 12:40:00,
2013-04-10 07:45:00,37.7,34.8,29.83,North,5,9.0,13.0,89,0.05,,---,0.27,VWS V14.00,2013-04-10 12:45:00,
2013-04-10 07:50:00,37.6,34.9,29.86,NW,325,11.0,12.0,90,0.04,,---,0.28,VWS V14.00,2013-04-10 12:50:00,
2013-04-10 07:55:00,37.7,35.0,29.88,WNW,286,11.0,12.0,90,0.04,,---,0.28,VWS V14.00,2013-04-10 12:55:00,
2013-04-10 08:00:00,37.8,35.1,29.86,NW,321,10.0,13.0,90,0.04,,---,0.28,VWS V14.00,2013-04-10 13:00:00,
2013-04-10 08:05:00,37.8,35.1,29.86,NW,306,13.0,16.0,90,0.00,,---,0.28,VWS V14.00,2013-04-10 13:05:00,
2013-04-10 08:10:00,37.7,35.0,29.88,WNW,289,7.0,9.0,90,0.00,,---,0.28,VWS V14.00,2013-04-10 13:10:00,
2013-04-10 08:15:00,37.7,35.0,29.90,WNW,286,13.0,15.0,90,0.00,,---,0.28,VWS V14.00,2013-04-10 13:15:00,
2013-04-10 08:20:00,37.6,34.9,29.92,West,273,9.0,17.0,90,0.00,,---,0.28,VWS V14.00,2013-04-10 13:20:00,
2013-04-10 08:25:00,37.4,34.7,29.89,WNW,291,12.0,12.0,90,0.00,,---,0.28,VWS V14.00,2013-04-10 13:25:00,
2013-04-10 08:30:00,37.4,34.7,29.92,West,269,10.0,11.0,90,0.00,,---,0.28,VWS V14.00,2013-04-10 13:30:00,
2013-04-10 08:35:00,37.2,34.5,29.90,WNW,298,6.0,7.0,90,0.00,,---,0.28,VWS V14.00,2013-04-10 13:35:00,
2013-04-10 08:40:00,37.0,34.3,29.89,WNW,299,9.0,14.0,90,0.00,,---,0.28,VWS V14.00,2013-04-10 13:40:00,
2013-04-10 08:45:00,36.9,34.2,29.88,NW,306,13.0,14.0,90,0.00,,---,0.28,VWS V14.00,2013-04-10 13:45:00,
2013-04-10 08:50:00,36.9,34.2,29.85,NW,318,13.0,17.0,90,0.00,,---,0.28,VWS V14.00,2013-04-10 13:50:00,
2013-04-10 08:55:00,36.9,34.2,29.87,NNW,331,15.0,19.0,90,0.00,,---,0.28,VWS V14.00,2013-04-10 13:55:00,
2013-04-10 09:00:00,36.8,33.9,29.87,WNW,294,15.0,17.0,89,0.00,,---,0.28,VWS V14.00,2013-04-10 14:00:00,
2013-04-10 09:05:00,36.8,33.9,29.88,NW,319,13.0,15.0,89,0.00,,---,0.28,VWS V14.00,2013-04-10 14:05:00,
2013-04-10 09:10:00,36.7,33.8,29.87,NW,304,12.0,16.0,89,0.00,,---,0.28,VWS V14.00,2013-04-10 14:10:00,
2013-04-10 09:15:00,36.9,34.2,29.88,WNW,296,11.0,13.0,90,0.00,,---,0.28,VWS V14.00,2013-04-10 14:15:00,
2013-04-10 09:20:00,36.9,34.2,29.88,NW,307,12.0,17.0,90,0.00,,---,0.28,VWS V14.00,2013-04-10 14:20:00,
2013-04-10 09:25:00,36.7,33.8,29.89,NW,304,15.0,17.0,89,0.00,,---,0.28,VWS V14.00,2013-04-10 14:25:00,
2013-04-10 09:30:00,36.6,33.7,29.90,WNW,285,13.0,15.0,89,0.00,,---,0.28,VWS V14.00,2013-04-10 14:30:00,
2013-04-10 09:35:00,36.6,33.7,29.90,WNW,303,13.0,18.0,89,0.00,,---,0.28,VWS V14.00,2013-04-10 14:35:00,
2013-04-10 09:40:00,36.6,33.7,29.90,WNW,290,12.0,16.0,89,0.00,,---,0.28,VWS V14.00,2013-04-10 14:40:00,
2013-04-10 09:45:00,36.6,33.7,29.89,NW,313,7.0,12.0,89,0.00,,---,0.28,VWS V14.00,2013-04-10 14:45:00,
2013-04-10 09:50:00,36.8,33.9,29.91,West,275,16.0,17.0,89,0.00,,---,0.28,VWS V14.00,2013-04-10 14:50:00,
2013-04-10 09:55:00,36.5,33.6,29.91,WNW,291,13.0,18.0,89,0.00,,---,0.28,VWS V14.00,2013-04-10 14:55:00,
2013-04-10 10:00:00,36.2,33.3,29.90,WNW,300,18.0,19.0,89,0.00,,---,0.28,VWS V14.00,2013-04-10 15:00:00,
2013-04-10 10:05:00,35.9,33.0,29.91,WNW,297,14.0,17.0,89,0.00,,---,0.28,VWS V14.00,2013-04-10 15:05:00,
2013-04-10 10:10:00,35.7,32.8,29.88,WNW,300,16.0,21.0,89,0.00,,---,0.28,VWS V14.00,2013-04-10 15:10:00,
2013-04-10 10:15:00,35.8,32.9,29.89,NW,322,12.0,16.0,89,0.00,,---,0.28,VWS V14.00,2013-04-10 15:15:00,
2013-04-10 10:20:00,35.9,33.0,29.86,NW,325,9.0,14.0,89,0.00,,---,0.28,VWS V14.00,2013-04-10 15:20:00,
2013-04-10 10:25:00,36.2,33.3,29.86,NNW,327,15.0,17.0,89,0.00,,---,0.28,VWS V14.00,2013-04-10 15:25:00,
2013-04-10 10:30:00,36.3,33.4,29.84,NNW,335,12.0,18.0,89,0.00,,---,0.28,VWS V14.00,2013-04-10 15:30:00,
2013-04-10 10:35:00,36.4,33.5,29.84,NW,323,10.0,18.0,89,0.00,,---,0.28,VWS V14.00,2013-04-10 15:35:00,
2013-04-10 10:40:00,36.5,33.3,29.86,WNW,302,13.0,17.0,88,0.00,,---,0.28,VWS V14.00,2013-04-10 15:40:00,
2013-04-10 10:45:00,36.4,33.2,29.89,NW,310,12.0,13.0,88,0.00,,---,0.28,VWS V14.00,2013-04-10 15:45:00,
2013-04-10 10:50:00,36.3,33.1,29.88,WNW,302,13.0,15.0,88,0.00,,---,0.28,VWS V14.00,2013-04-10 15:50:00,
2013-04-10 10:55:00,36.3,33.1,29.90,WNW,302,13.0,15.0,88,0.00,,---,0.28,VWS V14.00,2013-04-10 15:55:00,
2013-04-10 11:00:00,36.4,33.2,29.89,NW,319,13.0,14.0,88,0.00,,---,0.28,VWS V14.00,2013-04-10 16:00:00,
2013-04-10 11:05:00,36.4,33.2,29.89,NW,308,12.0,12.0,88,0.00,,---,0.28,VWS V14.00,2013-04-10 16:05:00,
2013-04-10 11:10:00,36.5,33.3,29.89,NW,316,13.0,15.0,88,0.00,,---,0.28,VWS V14.00,2013-04-10 16:10:00,
2013-04-10 11:15:00,36.6,33.4,29.90,NW,307,9.0,13.0,88,0.00,,---,0.28,VWS V14.00,2013-04-10 16:15:00,
2013-04-10 11:20:00,36.6,33.4,29.91,NW,309,10.0,11.0,88,0.00,,---,0.28,VWS V14.00,2013-04-10 16:20:00,
2013-04-10 11:25:00,36.7,33.5,29.91,WNW,301,12.0,17.0,88,0.00,,---,0.28,VWS V14.00,2013-04-10 16:25:00,
2013-04-10 11:30:00,36.6,33.1,29.92,NW,318,11.0,12.0,87,0.00,,---,0.28,VWS V14.00,2013-04-10 16:30:00,
2013-04-10 11:35:00,36.6,33.4,29.92,WNW,301,12.0,13.0,88,0.00,,---,0.28,VWS V14.00,2013-04-10 16:35:00,
2013-04-10 11:40:00,36.7,33.5,29.89,NW,314,14.0,17.0,88,0.00,,---,0.28,VWS V14.00,2013-04-10 16:40:00,
2013-04-10 11:45:00,36.6,33.4,29.88,NNW,327,15.0,20.0,88,0.00,,---,0.28,VWS V14.00,2013-04-10 16:45:00,
2013-04-10 11:50:00,36.5,33.3,29.89,WNW,300,11.0,18.0,88,0.00,,---,0.29,VWS V14.00,2013-04-10 16:50:00,
2013-04-10 11:55:00,36.3,33.1,29.92,NW,308,12.0,12.0,88,0.00,,---,0.29,VWS V14.00,2013-04-10 16:55:00,
2013-04-10 12:00:00,36.4,33.2,29.92,WNW,302,12.0,12.0,88,0.00,,---,0.29,VWS V14.00,2013-04-10 17:00:00,
2013-04-10 12:05:00,36.4,33.2,29.93,WNW,303,12.0,17.0,88,0.00,,---,0.29,VWS V14.00,2013-04-10 17:05:00,
2013-04-10 12:10:00,36.4,33.2,29.93,WNW,293,11.0,14.0,88,0.00,,---,0.29,VWS V14.00,2013-04-10 17:10:00,
2013-04-10 12:15:00,36.3,33.1,29.93,WNW,295,7.0,14.0,88,0.44,,---,0.31,VWS V14.00,2013-04-10 17:15:00,
2013-04-10 12:20:00,36.3,33.4,29.93,WNW,291,13.0,17.0,89,0.21,,---,0.33,VWS V14.00,2013-04-10 17:20:00,
2013-04-10 12:25:00,36.2,33.3,29.92,WNW,302,11.0,15.0,89,0.21,,---,0.34,VWS V14.00,2013-04-10 17:25:00,
2013-04-10 12:30:00,36.3,33.4,29.92,WNW,294,13.0,18.0,89,0.15,,---,0.35,VWS V14.00,2013-04-10 17:30:00,
2013-04-10 12:35:00,36.3,33.4,29.92,WNW,295,14.0,22.0,89,0.07,,---,0.35,VWS V14.00,2013-04-10 17:35:00,
2013-04-10 12:40:00,36.0,33.1,29.91,NW,321,18.0,18.0,89,0.04,,---,0.35,VWS V14.00,2013-04-10 17:40:00,
2013-04-10 12:45:00,35.9,33.0,29.91,WNW,293,16.0,19.0,89,0.00,,---,0.35,VWS V14.00,2013-04-10 17:45:00,
2013-04-10 12:50:00,35.8,32.9,29.91,WNW,291,12.0,17.0,89,0.00,,---,0.35,VWS V14.00,2013-04-10 17:50:00,
2013-04-10 12:55:00,35.7,32.8,29.95,WNW,287,15.0,19.0,89,0.00,,---,0.35,VWS V14.00,2013-04-10 17:55:00,
2013-04-10 13:00:00,35.8,33.2,29.92,WNW,300,10.0,16.0,90,0.00,,---,0.35,VWS V14.00,2013-04-10 18:00:00,
2013-04-10 13:05:00,35.8,33.2,29.91,NW,304,6.0,10.0,90,0.00,,---,0.36,VWS V14.00,2013-04-10 18:05:00,
2013-04-10 13:10:00,36.0,33.4,29.87,NNW,332,10.0,14.0,90,0.00,,---,0.36,VWS V14.00,2013-04-10 18:10:00,
2013-04-10 13:15:00,36.5,33.8,29.86,NNW,338,10.0,14.0,90,0.00,,---,0.37,VWS V14.00,2013-04-10 18:15:00,
2013-04-10 13:20:00,37.0,34.3,29.86,NNW,337,12.0,17.0,90,0.06,,---,0.37,VWS V14.00,2013-04-10 18:20:00,
2013-04-10 13:25:00,36.9,34.2,29.93,NW,306,10.0,13.0,90,0.06,,---,0.37,VWS V14.00,2013-04-10 18:25:00,
2013-04-10 13:30:00,36.7,34.0,29.92,NW,319,7.0,9.0,90,0.04,,---,0.37,VWS V14.00,2013-04-10 18:30:00,
2013-04-10 13:35:00,36.6,34.0,29.88,NW,315,11.0,16.0,90,0.00,,---,0.37,VWS V14.00,2013-04-10 18:35:00,
2013-04-10 13:40:00,36.7,34.0,29.86,NNW,336,22.0,22.0,90,0.00,,---,0.37,VWS V14.00,2013-04-10 18:40:00,
2013-04-10 13:45:00,36.8,33.9,29.85,NNW,328,12.0,16.0,89,0.00,,---,0.37,VWS V14.00,2013-04-10 18:45:00,
2013-04-10 13:50:00,36.8,33.9,29.81,NNW,342,13.0,21.0,89,0.00,,---,0.37,VWS V14.00,2013-04-10 18:50:00,
2013-04-10 13:55:00,36.8,33.9,29.88,WNW,289,24.0,24.0,89,0.00,,---,0.37,VWS V14.00,2013-04-10 18:55:00,
2013-04-10 14:00:00,36.9,34.0,29.87,WNW,283,13.0,16.0,89,0.00,,---,0.37,VWS V14.00,2013-04-10 19:00:00,
2013-04-10 14:05:00,36.9,34.0,29.91,WNW,297,11.0,16.0,89,0.00,,---,0.37,VWS V14.00,2013-04-10 19:05:00,
2013-04-10 14:10:00,36.9,34.0,29.94,West,279,11.0,14.0,89,0.00,,---,0.37,VWS V14.00,2013-04-10 19:10:00,
2013-04-10 14:15:00,36.9,34.0,29.92,West,277,10.0,13.0,89,0.00,,---,0.37,VWS V14.00,2013-04-10 19:15:00,
2013-04-10 14:20:00,36.9,33.7,29.91,WNW,284,7.0,11.0,88,0.00,,---,0.37,VWS V14.00,2013-04-10 19:20:00,
2013-04-10 14:25:00,36.9,33.7,29.92,WNW,290,5.0,9.0,88,0.00,,---,0.37,VWS V14.00,2013-04-10 19:25:00,
2013-04-10 14:30:00,37.0,33.8,29.92,WNW,298,11.0,15.0,88,0.00,,---,0.37,VWS V14.00,2013-04-10 19:30:00,
2013-04-10 14:35:00,36.7,33.5,29.95,West,275,12.0,14.0,88,0.00,,---,0.38,VWS V14.00,2013-04-10 19:35:00,
2013-04-10 14:40:00,36.6,33.4,29.92,WNW,302,9.0,12.0,88,0.00,,---,0.38,VWS V14.00,2013-04-10 19:40:00,
2013-04-10 14:45:00,36.4,33.2,29.88,NW,315,8.0,11.0,88,0.24,,---,0.40,VWS V14.00,2013-04-10 19:45:00,
2013-04-10 14:50:00,36.2,33.0,29.88,NW,315,8.0,12.0,88,0.16,,---,0.41,VWS V14.00,2013-04-10 19:50:00,
2013-04-10 14:55:00,36.2,33.3,29.91,West,276,14.0,17.0,89,0.08,,---,0.41,VWS V14.00,2013-04-10 19:55:00,
2013-04-10 15:00:00,36.2,33.3,29.88,WNW,298,14.0,15.0,89,0.07,,---,0.42,VWS V14.00,2013-04-10 20:00:00,
2013-04-10 15:05:00,36.1,33.2,29.90,WNW,297,12.0,12.0,89,0.26,,---,0.44,VWS V14.00,2013-04-10 20:05:00,
2013-04-10 15:10:00,36.1,33.2,29.89,WNW,302,15.0,16.0,89,0.18,,---,0.45,VWS V14.00,2013-04-10 20:10:00,
2013-04-10 15:15:00,35.9,33.0,29.88,West,280,17.0,19.0,89,0.10,,---,0.46,VWS V14.00,2013-04-10 20:15:00,
2013-04-10 15:20:00,35.9,33.3,29.94,West,277,15.0,18.0,90,0.08,,---,0.46,VWS V14.00,2013-04-10 20:20:00,
2013-04-10 15:25:00,36.0,33.1,29.87,NW,305,15.0,16.0,89,0.05,,---,0.46,VWS V14.00,2013-04-10 20:25:00,
2013-04-10 15:30:00,36.0,33.4,29.85,NW,309,15.0,15.0,90,0.04,,---,0.47,VWS V14.00,2013-04-10 20:30:00,
2013-04-10 15:35:00,36.3,33.7,29.83,NW,305,13.0,16.0,90,0.04,,---,0.47,VWS V14.00,2013-04-10 20:35:00,
2013-04-10 15:40:00,36.4,33.8,29.85,NW,309,18.0,18.0,90,0.04,,---,0.47,VWS V14.00,2013-04-10 20:40:00,
2013-04-10 15:45:00,36.2,33.6,29.87,NW,308,14.0,20.0,90,0.04,,---,0.47,VWS V14.00,2013-04-10 20:45:00,
2013-04-10 15:50:00,36.2,33.3,29.86,NW,305,11.0,17.0,89,0.00,,---,0.47,VWS V14.00,2013-04-10 20:50:00,
2013-04-10 15:55:00,36.3,33.4,29.87,WNW,290,19.0,20.0,89,0.00,,---,0.47,VWS V14.00,2013-04-10 20:55:00,
2013-04-10 16:00:00,36.3,33.4,29.87,WNW,294,13.0,16.0,89,0.00,,---,0.47,VWS V14.00,2013-04-10 21:00:00,
2013-04-10 16:05:00,36.6,33.7,29.87,WNW,289,15.0,21.0,89,0.00,,---,0.47,VWS V14.00,2013-04-10 21:05:00,
2013-04-10 16:10:00,36.5,33.6,29.88,West,281,16.0,22.0,89,0.00,,---,0.47,VWS V14.00,2013-04-10 21:10:00,
2013-04-10 16:15:00,36.2,33.0,29.88,WNW,288,14.0,18.0,88,0.00,,---,0.47,VWS V14.00,2013-04-10 21:15:00,
2013-04-10 16:20:00,36.0,33.1,29.88,NW,313,7.0,15.0,89,0.00,,---,0.47,VWS V14.00,2013-04-10 21:20:00,
2013-04-10 16:25:00,36.4,33.5,29.86,NNW,333,17.0,17.0,89,0.00,,---,0.47,VWS V14.00,2013-04-10 21:25:00,
2013-04-10 16:30:00,36.5,33.6,29.86,NW,323,11.0,14.0,89,0.00,,---,0.47,VWS V14.00,2013-04-10 21:30:00,
2013-04-10 16:35:00,36.6,33.7,29.86,NW,317,11.0,14.0,89,0.00,,---,0.47,VWS V14.00,2013-04-10 21:35:00,
2013-04-10 16:40:00,36.7,33.8,29.86,NW,309,10.0,14.0,89,0.00,,---,0.47,VWS V14.00,2013-04-10 21:40:00,
2013-04-10 16:45:00,36.8,33.6,29.86,WNW,298,9.0,13.0,88,0.00,,---,0.47,VWS V14.00,2013-04-10 21:45:00,
2013-04-10 16:50:00,37.0,34.1,29.85,NW,314,15.0,16.0,89,0.00,,---,0.47,VWS V14.00,2013-04-10 21:50:00,
2013-04-10 16:55:00,37.1,33.9,29.85,NW,316,14.0,15.0,88,0.00,,---,0.47,VWS V14.00,2013-04-10 21:55:00,
2013-04-10 17:00:00,37.1,33.9,29.85,NW,314,10.0,15.0,88,0.00,,---,0.47,VWS V14.00,2013-04-10 22:00:00,
2013-04-10 17:05:00,37.3,34.1,29.86,NW,316,12.0,16.0,88,0.00,,---,0.47,VWS V14.00,2013-04-10 22:05:00,
2013-04-10 17:10:00,37.6,34.4,29.85,NW,306,12.0,16.0,88,0.00,,---,0.47,VWS V14.00,2013-04-10 22:10:00,
2013-04-10 17:15:00,37.8,34.6,29.86,WNW,298,19.0,19.0,88,0.00,,---,0.47,VWS V14.00,2013-04-10 22:15:00,
2013-04-10 17:20:00,37.7,34.2,29.85,WNW,300,13.0,17.0,87,0.00,,---,0.47,VWS V14.00,2013-04-10 22:20:00,
2013-04-10 17:25:00,37.7,33.9,29.86,WNW,301,9.0,16.0,86,0.00,,---,0.47,VWS V14.00,2013-04-10 22:25:00,
2013-04-10 17:30:00,37.6,33.8,29.86,NW,317,17.0,18.0,86,0.00,,---,0.47,VWS V14.00,2013-04-10 22:30:00,
2013-04-10 17:35:00,37.6,33.8,29.86,WNW,293,13.0,14.0,86,0.00,,---,0.47,VWS V14.00,2013-04-10 22:35:00,
2013-04-10 17:40:00,37.7,33.9,29.87,WNW,294,12.0,13.0,86,0.00,,---,0.47,VWS V14.00,2013-04-10 22:40:00,
2013-04-10 17:45:00,37.8,34.0,29.87,WNW,303,10.0,13.0,86,0.00,,---,0.47,VWS V14.00,2013-04-10 22:45:00,
2013-04-10 17:50:00,37.7,33.9,29.88,NW,306,10.0,16.0,86,0.00,,---,0.47,VWS V14.00,2013-04-10 22:50:00,
2013-04-10 17:55:00,37.6,33.8,29.88,WNW,296,9.0,14.0,86,0.00,,---,0.47,VWS V14.00,2013-04-10 22:55:00,
2013-04-10 18:00:00,37.7,33.9,29.88,WNW,296,11.0,15.0,86,0.00,,---,0.47,VWS V14.00,2013-04-10 23:00:00,
2013-04-10 18:05:00,37.4,33.3,29.88,WNW,296,12.0,16.0,85,0.00,,---,0.47,VWS V14.00,2013-04-10 23:05:00,
2013-04-10 18:10:00,37.2,33.1,29.88,WNW,301,13.0,16.0,85,0.00,,---,0.47,VWS V14.00,2013-04-10 23:10:00,
2013-04-10 18:15:00,37.1,33.0,29.88,WNW,300,10.0,14.0,85,0.00,,---,0.47,VWS V14.00,2013-04-10 23:15:00,
2013-04-10 18:20:00,37.0,32.9,29.88,NW,306,15.0,17.0,85,0.00,,---,0.47,VWS V14.00,2013-04-10 23:20:00,
2013-04-10 18:25:00,36.9,32.8,29.87,NW,308,12.0,17.0,85,0.00,,---,0.47,VWS V14.00,2013-04-10 23:25:00,
2013-04-10 18:30:00,36.9,32.8,29.87,NW,320,14.0,14.0,85,0.00,,---,0.47,VWS V14.00,2013-04-10 23:30:00,
2013-04-10 18:35:00,37.0,32.9,29.88,WNW,302,9.0,11.0,85,0.00,,---,0.47,VWS V14.00,2013-04-10 23:35:00,
2013-04-10 18:40:00,37.0,32.9,29.88,NW,315,10.0,11.0,85,0.00,,---,0.47,VWS V14.00,2013-04-10 23:40:00,
2013-04-10 18:45:00,37.1,33.0,29.88,NW,313,12.0,14.0,85,0.00,,---,0.47,VWS V14.00,2013-04-10 23:45:00,
2013-04-10 18:50:00,37.0,32.9,29.88,NW,321,12.0,14.0,85,0.00,,---,0.47,VWS V14.00,2013-04-10 23:50:00,
2013-04-10 18:55:00,37.0,32.9,29.88,NW,318,8.0,10.0,85,0.00,,---,0.47,VWS V14.00,2013-04-10 23:55:00,
2013-04-10 19:00:00,37.0,32.9,29.87,NW,311,11.0,13.0,85,0.00,,---,0.47,VWS V14.00,2013-04-11 00:00:00,
2013-04-10 19:05:00,37.0,32.9,29.88,NW,304,9.0,11.0,85,0.00,,---,0.47,VWS V14.00,2013-04-11 00:05:00,
2013-04-10 19:10:00,37.0,32.9,29.88,WNW,293,10.0,10.0,85,0.00,,---,0.47,VWS V14.00,2013-04-11 00:10:00,
2013-04-10 19:15:00,37.0,32.9,29.89,WNW,285,10.0,13.0,85,0.00,,---,0.47,VWS V14.00,2013-04-11 00:15:00,
2013-04-10 19:20:00,37.0,32.9,29.89,WNW,283,14.0,14.0,85,0.00,,---,0.47,VWS V14.00,2013-04-11 00:20:00,
2013-04-10 19:25:00,36.9,32.8,29.89,WNW,288,12.0,14.0,85,0.00,,---,0.47,VWS V14.00,2013-04-11 00:25:00,
2013-04-10 19:30:00,36.9,32.8,29.90,WNW,298,11.0,17.0,85,0.00,,---,0.47,VWS V14.00,2013-04-11 00:30:00,
2013-04-10 19:35:00,36.8,32.7,29.90,WNW,287,12.0,14.0,85,0.00,,---,0.47,VWS V14.00,2013-04-11 00:35:00,
2013-04-10 19:40:00,36.7,32.3,29.91,WNW,284,11.0,14.0,84,0.00,,---,0.47,VWS V14.00,2013-04-11 00:40:00,
2013-04-10 19:45:00,36.7,32.3,29.91,WNW,283,12.0,15.0,84,0.00,,---,0.47,VWS V14.00,2013-04-11 00:45:00,
2013-04-10 19:50:00,36.6,32.2,29.92,WNW,285,16.0,19.0,84,0.00,,---,0.47,VWS V14.00,2013-04-11 00:50:00,
2013-04-10 19:55:00,36.4,32.0,29.92,WNW,302,11.0,17.0,84,0.00,,---,0.47,VWS V14.00,2013-04-11 00:55:00,
2013-04-10 20:00:00,36.4,32.0,29.92,WNW,297,9.0,14.0,84,0.00,,---,0.47,VWS V14.00,2013-04-11 01:00:00,
2013-04-10 20:05:00,36.3,31.9,29.93,NW,305,10.0,13.0,84,0.00,,---,0.47,VWS V14.00,2013-04-11 01:05:00,
2013-04-10 20:10:00,36.2,31.8,29.93,WNW,303,10.0,15.0,84,0.00,,---,0.47,VWS V14.00,2013-04-11 01:10:00,
2013-04-10 20:15:00,36.2,31.8,29.93,NW,311,14.0,16.0,84,0.00,,---,0.47,VWS V14.00,2013-04-11 01:15:00,
2013-04-10 20:20:00,36.1,31.7,29.93,WNW,298,9.0,13.0,84,0.00,,---,0.47,VWS V14.00,2013-04-11 01:20:00,
2013-04-10 20:25:00,36.1,31.7,29.93,WNW,296,10.0,12.0,84,0.00,,---,0.47,VWS V14.00,2013-04-11 01:25:00,
2013-04-10 20:30:00,36.0,31.4,29.93,WNW,303,14.0,18.0,83,0.00,,---,0.47,VWS V14.00,2013-04-11 01:30:00,
2013-04-10 20:35:00,36.0,31.4,29.93,WNW,300,6.0,12.0,83,0.00,,---,0.47,VWS V14.00,2013-04-11 01:35:00,
2013-04-10 20:40:00,36.1,31.7,29.93,NW,306,7.0,12.0,84,0.00,,---,0.47,VWS V14.00,2013-04-11 01:40:00,
2013-04-10 20:45:00,36.0,31.6,29.93,WNW,299,10.0,12.0,84,0.00,,---,0.47,VWS V14.00,2013-04-11 01:45:00,
2013-04-10 20:50:00,36.0,31.6,29.94,WNW,300,6.0,13.0,84,0.00,,---,0.47,VWS V14.00,2013-04-11 01:50:00,
2013-04-10 20:55:00,35.9,31.5,29.94,NW,307,7.0,12.0,84,0.00,,---,0.47,VWS V14.00,2013-04-11 01:55:00,
2013-04-10 21:00:00,35.8,31.5,29.94,WNW,289,12.0,15.0,84,0.00,,---,0.47,VWS V14.00,2013-04-11 02:00:00,
2013-04-10 21:05:00,35.7,31.4,29.94,WNW,295,10.0,12.0,84,0.00,,---,0.47,VWS V14.00,2013-04-11 02:05:00,
2013-04-10 21:10:00,35.6,31.5,29.94,WNW,291,11.0,14.0,85,0.00,,---,0.47,VWS V14.00,2013-04-11 02:10:00,
2013-04-10 21:15:00,35.5,31.5,29.94,WNW,287,10.0,13.0,85,0.00,,---,0.47,VWS V14.00,2013-04-11 02:15:00,
2013-04-10 21:20:00,35.5,31.5,29.95,WNW,286,14.0,16.0,85,0.00,,---,0.47,VWS V14.00,2013-04-11 02:20:00,
2013-04-10 21:25:00,35.4,31.4,29.95,WNW,300,9.0,13.0,85,0.00,,---,0.47,VWS V14.00,2013-04-11 02:25:00,
2013-04-10 21:30:00,35.3,31.2,29.95,WNW,298,14.0,14.0,85,0.00,,---,0.47,VWS V14.00,2013-04-11 02:30:00,
2013-04-10 21:35:00,35.4,31.4,29.96,WNW,291,8.0,12.0,85,0.00,,---,0.47,VWS V14.00,2013-04-11 02:35:00,
2013-04-10 21:40:00,35.4,31.4,29.97,WNW,290,9.0,10.0,85,0.00,,---,0.47,VWS V14.00,2013-04-11 02:40:00,
2013-04-10 21:45:00,35.4,31.4,29.96,NW,306,10.0,13.0,85,0.00,,---,0.47,VWS V14.00,2013-04-11 02:45:00,
2013-04-10 21:50:00,35.4,31.4,29.96,NW,308,11.0,11.0,85,0.00,,---,0.47,VWS V14.00,2013-04-11 02:50:00,
2013-04-10 21:55:00,35.4,31.4,29.94,NW,308,11.0,15.0,85,0.00,,---,0.47,VWS V14.00,2013-04-11 02:55:00,
2013-04-10 22:00:00,35.5,31.5,29.95,NW,304,10.0,12.0,85,0.00,,---,0.47,VWS V14.00,2013-04-11 03:00:00,
2013-04-10 22:05:00,35.4,31.1,29.96,WNW,302,6.0,10.0,84,0.00,,---,0.47,VWS V14.00,2013-04-11 03:05:00,
2013-04-10 22:10:00,35.5,31.1,29.96,WNW,291,6.0,11.0,84,0.00,,---,0.47,VWS V14.00,2013-04-11 03:10:00,
2013-04-10 22:15:00,35.5,31.1,29.97,WNW,299,10.0,10.0,84,0.00,,---,0.47,VWS V14.00,2013-04-11 03:15:00,
2013-04-10 22:20:00,35.5,31.1,29.97,NW,308,10.0,12.0,84,0.00,,---,0.47,VWS V14.00,2013-04-11 03:20:00,
2013-04-10 22:25:00,35.5,30.9,29.97,WNW,298,7.0,10.0,83,0.00,,---,0.47,VWS V14.00,2013-04-11 03:25:00,
2013-04-10 22:30:00,35.6,31.0,29.96,WNW,299,10.0,11.0,83,0.00,,---,0.47,VWS V14.00,2013-04-11 03:30:00,
2013-04-10 22:35:00,35.6,31.0,29.96,WNW,298,8.0,11.0,83,0.00,,---,0.47,VWS V14.00,2013-04-11 03:35:00,
2013-04-10 22:40:00,35.5,30.9,29.96,NNW,327,9.0,13.0,83,0.00,,---,0.47,VWS V14.00,2013-04-11 03:40:00,
2013-04-10 22:45:00,35.6,30.7,29.96,NW,309,9.0,15.0,82,0.00,,---,0.47,VWS V14.00,2013-04-11 03:45:00,
2013-04-10 22:50:00,35.5,30.6,29.96,WNW,302,12.0,16.0,82,0.00,,---,0.47,VWS V14.00,2013-04-11 03:50:00,
2013-04-10 22:55:00,35.6,30.7,29.96,WNW,300,16.0,20.0,82,0.00,,---,0.47,VWS V14.00,2013-04-11 03:55:00,
2013-04-10 23:00:00,35.6,30.4,29.96,WNW,300,10.0,12.0,81,0.00,,---,0.47,VWS V14.00,2013-04-11 04:00:00,
2013-04-10 23:05:00,35.6,30.7,29.96,NW,306,7.0,12.0,82,0.00,,---,0.47,VWS V14.00,2013-04-11 04:05:00,
2013-04-10 23:10:00,35.6,30.4,29.96,WNW,296,12.0,13.0,81,0.00,,---,0.47,VWS V14.00,2013-04-11 04:10:00,
2013-04-10 23:15:00,35.6,30.4,29.96,WNW,300,11.0,13.0,81,0.00,,---,0.47,VWS V14.00,2013-04-11 04:15:00,
2013-04-10 23:20:00,35.7,30.5,29.96,NW,308,10.0,15.0,81,0.00,,---,0.47,VWS V14.00,2013-04-11 04:20:00,
2013-04-10 23:25:00,35.7,30.5,29.95,WNW,300,11.0,13.0,81,0.00,,---,0.47,VWS V14.00,2013-04-11 04:25:00,
2013-04-10 23:30:00,35.7,30.5,29.97,WNW,294,14.0,14.0,81,0.00,,---,0.47,VWS V14.00,2013-04-11 04:30:00,
2013-04-10 23:35:00,35.7,30.5,29.97,NW,306,10.0,12.0,81,0.00,,---,0.47,VWS V14.00,2013-04-11 04:35:00,
2013-04-10 23:40:00,35.7,30.5,29.96,WNW,300,10.0,11.0,81,0.00,,---,0.47,VWS V14.00,2013-04-11 04:40:00,
2013-04-10 23:45:00,35.7,30.5,29.96,WNW,293,13.0,13.0,81,0.00,,---,0.47,VWS V14.00,2013-04-11 04:45:00,
2013-04-10 23:50:00,35.7,30.5,29.95,WNW,300,9.0,14.0,81,0.00,,---,0.47,VWS V14.00,2013-04-11 04:50:00,
2013-04-10 23:55:00,35.6,30.4,29.96,WNW,295,12.0,13.0,81,0.00,,---,0.47,VWS V14.00,2013-04-11 04:55:00,